GLO1344 SBSP-SBCX

Flight info

Callsign GLO1344
Flight time N/A
Altitude 38000
Route UBSOD UZ38 VUKMO
Aircraft B738/M-SDE2E3FGHIRWXY/LB1

Departure

Time 2026-05-06 12:00
Airport Congonhas–Deputado Freitas Nobre Airport (SBSP)

Arrival

Time N/A
Airport Hugo Cantergiani Regional Airport (SBCX)
Time Latitude Longitude Altitude Speed Heading
2026-05-06 11:44 -23.62479 -46.65984 2599 ft 0 kts 237°
2026-05-06 11:56 -23.62474 -46.65976 2599 ft 3 kts 237°
2026-05-06 11:56 -23.62464 -46.65956 2599 ft 3 kts 263°
2026-05-06 11:56 -23.62467 -46.65941 2600 ft 2 kts 327°
2026-05-06 11:56 -23.62484 -46.65929 2600 ft 1 kts 327°
2026-05-06 11:58 -23.62475 -46.65933 2600 ft 6 kts 339°
2026-05-06 11:58 -23.62383 -46.65972 2599 ft 22 kts 338°
2026-05-06 11:58 -23.62267 -46.66029 2599 ft 19 kts 333°
2026-05-06 11:58 -23.62150 -46.66019 2597 ft 6 kts 47°
2026-05-06 11:59 -23.62171 -46.65991 2598 ft 20 kts 145°
2026-05-06 11:59 -23.62520 -46.65748 2603 ft 97 kts 147°
2026-05-06 11:59 -23.63281 -46.65206 2638 ft 158 kts 143°
2026-05-06 11:59 -23.64246 -46.64513 3210 ft 176 kts 146°
2026-05-06 12:00 -23.65282 -46.63852 4080 ft 175 kts 158°
2026-05-06 12:00 -23.66548 -46.63843 4610 ft 198 kts 187°
2026-05-06 12:00 -23.67963 -46.64062 5065 ft 212 kts 185°
2026-05-06 12:00 -23.69512 -46.64265 5223 ft 236 kts 184°
2026-05-06 12:01 -23.71205 -46.64471 5521 ft 252 kts 184°
2026-05-06 12:01 -23.73001 -46.64683 5750 ft 272 kts 184°
2026-05-06 12:01 -23.74892 -46.65070 6373 ft 281 kts 202°
2026-05-06 12:01 -23.76450 -46.66354 7182 ft 286 kts 232°
2026-05-06 12:02 -23.77274 -46.68362 7927 ft 291 kts 262°
2026-05-06 12:02 -23.77302 -46.70548 8683 ft 294 kts 267°
2026-05-06 12:02 -23.77909 -46.72667 9387 ft 297 kts 236°
2026-05-06 12:02 -23.79088 -46.74526 10196 ft 299 kts 234°
2026-05-06 12:03 -23.80363 -46.76406 10512 ft 319 kts 232°
2026-05-06 12:03 -23.81735 -46.78425 10675 ft 343 kts 233°
2026-05-06 12:03 -23.83162 -46.80622 10823 ft 365 kts 235°
2026-05-06 12:03 -23.84618 -46.82965 11145 ft 378 kts 235°
2026-05-06 12:04 -23.86085 -46.85370 11774 ft 380 kts 235°
2026-05-06 12:04 -23.87624 -46.87726 12403 ft 381 kts 226°
2026-05-06 12:04 -23.89714 -46.89489 13027 ft 381 kts 210°
2026-05-06 12:04 -23.91988 -46.90991 13663 ft 384 kts 210°
2026-05-06 12:05 -23.94275 -46.92518 14221 ft 387 kts 210°
2026-05-06 12:05 -23.96577 -46.94071 14734 ft 389 kts 211°
2026-05-06 12:05 -23.98861 -46.95624 15282 ft 391 kts 211°
2026-05-06 12:05 -24.01176 -46.97207 15823 ft 393 kts 211°
2026-05-06 12:06 -24.03497 -46.98799 16372 ft 394 kts 211°
2026-05-06 12:06 -24.05824 -47.00399 16919 ft 396 kts 211°
2026-05-06 12:06 -24.08161 -47.02006 17438 ft 397 kts 211°
2026-05-06 12:06 -24.10509 -47.03622 17967 ft 400 kts 211°
2026-05-06 12:07 -24.12874 -47.05249 18476 ft 402 kts 211°
2026-05-06 12:07 -24.15245 -47.06883 18927 ft 404 kts 211°
2026-05-06 12:07 -24.17631 -47.08526 19346 ft 406 kts 212°
2026-05-06 12:07 -24.20002 -47.10160 19765 ft 408 kts 212°
2026-05-06 12:08 -24.22406 -47.11818 20218 ft 410 kts 212°
2026-05-06 12:08 -24.24826 -47.13487 20650 ft 412 kts 212°
2026-05-06 12:08 -24.27263 -47.15169 21054 ft 415 kts 212°
2026-05-06 12:08 -24.29707 -47.16861 21434 ft 418 kts 212°
2026-05-06 12:09 -24.32170 -47.18571 21844 ft 419 kts 212°
2026-05-06 12:09 -24.34640 -47.20286 22287 ft 421 kts 213°
2026-05-06 12:09 -24.37114 -47.22006 22721 ft 422 kts 213°
2026-05-06 12:09 -24.39602 -47.23735 23120 ft 424 kts 213°
2026-05-06 12:10 -24.42099 -47.25473 23497 ft 426 kts 213°
2026-05-06 12:10 -24.44611 -47.27221 23859 ft 428 kts 213°
2026-05-06 12:10 -24.47142 -47.28981 24223 ft 429 kts 213°
2026-05-06 12:10 -24.49657 -47.30732 24623 ft 428 kts 213°
2026-05-06 12:11 -24.52171 -47.32483 25024 ft 427 kts 213°
2026-05-06 12:11 -24.54654 -47.34214 25372 ft 428 kts 213°
2026-05-06 12:11 -24.57174 -47.35972 25709 ft 429 kts 213°
2026-05-06 12:11 -24.59693 -47.37729 26057 ft 429 kts 213°
2026-05-06 12:12 -24.62215 -47.39489 26416 ft 429 kts 213°
2026-05-06 12:12 -24.64735 -47.41249 26769 ft 429 kts 213°
2026-05-06 12:12 -24.67255 -47.43009 27114 ft 429 kts 213°
2026-05-06 12:12 -24.69774 -47.44770 27453 ft 429 kts 212°
2026-05-06 12:13 -24.72293 -47.46532 27776 ft 429 kts 212°
2026-05-06 12:13 -24.74816 -47.48297 28073 ft 430 kts 212°
2026-05-06 12:13 -24.77340 -47.50065 28370 ft 430 kts 212°
2026-05-06 12:13 -24.79867 -47.51834 28645 ft 431 kts 212°
2026-05-06 12:14 -24.82400 -47.53609 29004 ft 430 kts 212°
2026-05-06 12:14 -24.84884 -47.55351 29523 ft 425 kts 212°
2026-05-06 12:14 -24.87361 -47.57088 30109 ft 419 kts 212°
2026-05-06 12:14 -24.89805 -47.58804 30593 ft 415 kts 212°
2026-05-06 12:15 -24.92250 -47.60521 30816 ft 416 kts 212°
2026-05-06 12:15 -24.94712 -47.62250 30962 ft 420 kts 212°
2026-05-06 12:15 -24.97177 -47.63982 31229 ft 420 kts 212°
2026-05-06 12:15 -24.99632 -47.65708 31601 ft 417 kts 212°
2026-05-06 12:16 -25.02074 -47.67426 31956 ft 415 kts 213°
2026-05-06 12:16 -25.04478 -47.69118 32232 ft 415 kts 213°
2026-05-06 12:16 -25.06913 -47.70833 32487 ft 415 kts 213°
2026-05-06 12:16 -25.09349 -47.72549 32783 ft 415 kts 213°
2026-05-06 12:17 -25.11779 -47.74261 33107 ft 413 kts 213°
2026-05-06 12:17 -25.14204 -47.75971 33368 ft 413 kts 213°
2026-05-06 12:17 -25.16630 -47.77683 33606 ft 414 kts 213°
2026-05-06 12:17 -25.19057 -47.79396 33877 ft 413 kts 213°
2026-05-06 12:18 -25.21478 -47.81106 34169 ft 412 kts 213°
2026-05-06 12:18 -25.23892 -47.82812 34455 ft 410 kts 213°
2026-05-06 12:18 -25.26290 -47.84507 34818 ft 406 kts 213°
2026-05-06 12:18 -25.28624 -47.86157 35224 ft 401 kts 213°
2026-05-06 12:19 -25.30956 -47.87806 35647 ft 395 kts 213°
2026-05-06 12:19 -25.33255 -47.89433 36053 ft 390 kts 214°
2026-05-06 12:19 -25.35522 -47.91039 36435 ft 385 kts 214°
2026-05-06 12:19 -25.37762 -47.92627 36784 ft 381 kts 214°
2026-05-06 12:20 -25.39984 -47.94202 37085 ft 378 kts 214°
2026-05-06 12:20 -25.42192 -47.95770 37359 ft 375 kts 214°
2026-05-06 12:20 -25.44388 -47.97329 37643 ft 373 kts 214°
2026-05-06 12:20 -25.46562 -47.98873 37909 ft 370 kts 214°
2026-05-06 12:21 -25.48721 -48.00407 38162 ft 368 kts 214°
2026-05-06 12:21 -25.50884 -48.01945 38169 ft 371 kts 214°
2026-05-06 12:21 -25.55222 -48.05031 38189 ft 369 kts 214°
2026-05-06 12:22 -25.59530 -48.08098 38186 ft 366 kts 214°
2026-05-06 12:22 -25.63804 -48.11142 38190 ft 364 kts 214°
2026-05-06 12:23 -25.68033 -48.14149 38190 ft 362 kts 214°
2026-05-06 12:23 -25.72280 -48.17170 38191 ft 362 kts 214°
2026-05-06 12:24 -25.76522 -48.20191 38195 ft 363 kts 214°
2026-05-06 12:24 -25.80749 -48.23205 38202 ft 364 kts 215°
2026-05-06 12:25 -25.85018 -48.26251 38197 ft 365 kts 215°
2026-05-06 12:25 -25.89313 -48.29319 38194 ft 367 kts 215°
2026-05-06 12:26 -25.93621 -48.32399 38194 ft 368 kts 215°
2026-05-06 12:26 -25.97912 -48.35469 38193 ft 370 kts 215°
2026-05-06 12:27 -26.02258 -48.38581 38191 ft 370 kts 215°
2026-05-06 12:27 -26.06593 -48.41689 38198 ft 371 kts 215°
2026-05-06 12:28 -26.10904 -48.44781 38190 ft 370 kts 215°
2026-05-06 12:28 -26.15230 -48.47887 38190 ft 370 kts 215°
2026-05-06 12:29 -26.19547 -48.50991 38194 ft 369 kts 215°
2026-05-06 12:29 -26.23854 -48.54089 38192 ft 368 kts 215°
2026-05-06 12:30 -26.28156 -48.57187 38194 ft 367 kts 215°
2026-05-06 12:30 -26.32416 -48.60258 38192 ft 366 kts 215°
2026-05-06 12:31 -26.36693 -48.63346 38201 ft 366 kts 215°
2026-05-06 12:31 -26.40969 -48.66436 38204 ft 365 kts 216°
2026-05-06 12:32 -26.45235 -48.69520 38194 ft 365 kts 216°
2026-05-06 12:32 -26.49482 -48.72617 38195 ft 364 kts 216°
2026-05-06 12:33 -26.53709 -48.75737 38193 ft 364 kts 216°
2026-05-06 12:33 -26.57934 -48.78856 38196 ft 364 kts 216°
2026-05-06 12:34 -26.62127 -48.81952 38198 ft 364 kts 216°
2026-05-06 12:34 -26.66352 -48.85072 38216 ft 364 kts 216°
2026-05-06 12:35 -26.70599 -48.88183 38205 ft 365 kts 216°
2026-05-06 12:35 -26.74863 -48.91290 38199 ft 366 kts 216°
2026-05-06 12:36 -26.79134 -48.94406 38190 ft 366 kts 216°
2026-05-06 12:36 -26.83377 -48.97505 38199 ft 366 kts 216°
2026-05-06 12:37 -26.87643 -49.00628 38192 ft 367 kts 216°
2026-05-06 12:37 -26.91920 -49.03766 38196 ft 367 kts 216°
2026-05-06 12:38 -26.96185 -49.06898 38204 ft 367 kts 216°
2026-05-06 12:38 -27.00458 -49.10033 38201 ft 366 kts 216°
2026-05-06 12:39 -27.04718 -49.13173 38210 ft 366 kts 216°
2026-05-06 12:39 -27.08965 -49.16290 38205 ft 366 kts 216°
2026-05-06 12:40 -27.13229 -49.19425 38208 ft 366 kts 216°
2026-05-06 12:40 -27.16770 -49.22035 38213 ft 366 kts 216°
2026-05-06 12:41 -27.21728 -49.25694 38217 ft 366 kts 216°
2026-05-06 12:41 -27.25328 -49.28300 38212 ft 367 kts 216°
2026-05-06 12:42 -27.29556 -49.31450 38215 ft 368 kts 216°
2026-05-06 12:42 -27.33826 -49.34629 38221 ft 367 kts 216°
2026-05-06 12:43 -27.38094 -49.37793 38221 ft 367 kts 216°
2026-05-06 12:43 -27.42373 -49.40962 38218 ft 367 kts 216°
2026-05-06 12:44 -27.46597 -49.44097 38245 ft 366 kts 216°
2026-05-06 12:44 -27.50851 -49.47256 38230 ft 366 kts 216°
2026-05-06 12:45 -27.55105 -49.50412 38231 ft 366 kts 216°
2026-05-06 12:46 -27.61478 -49.55138 38251 ft 366 kts 216°
2026-05-06 12:46 -27.65733 -49.58294 38247 ft 365 kts 216°
2026-05-06 12:47 -27.69983 -49.61450 38236 ft 365 kts 216°
2026-05-06 12:47 -27.74218 -49.64596 38259 ft 364 kts 216°
2026-05-06 12:48 -27.78467 -49.67663 38261 ft 365 kts 216°
2026-05-06 12:48 -27.82766 -49.70710 38240 ft 365 kts 216°
2026-05-06 12:49 -27.87065 -49.73766 38252 ft 365 kts 216°
2026-05-06 12:49 -27.91382 -49.76845 37778 ft 368 kts 216°
2026-05-06 12:49 -27.93530 -49.78376 37381 ft 364 kts 216°
2026-05-06 12:50 -27.95665 -49.79902 36990 ft 360 kts 216°
2026-05-06 12:50 -27.97773 -49.81406 36592 ft 356 kts 216°
2026-05-06 12:50 -27.99861 -49.82897 36177 ft 353 kts 216°
2026-05-06 12:50 -28.01934 -49.84381 35780 ft 351 kts 216°
2026-05-06 12:51 -28.03969 -49.85842 35384 ft 349 kts 216°
2026-05-06 12:51 -28.06027 -49.87319 34969 ft 348 kts 216°
2026-05-06 12:51 -28.08070 -49.88786 34562 ft 347 kts 216°
2026-05-06 12:51 -28.10111 -49.90251 34154 ft 346 kts 215°
2026-05-06 12:52 -28.12146 -49.91712 33706 ft 345 kts 215°
2026-05-06 12:52 -28.14167 -49.93164 33308 ft 343 kts 215°
2026-05-06 12:52 -28.16173 -49.94608 32924 ft 340 kts 215°
2026-05-06 12:52 -28.18143 -49.96023 32544 ft 339 kts 215°
2026-05-06 12:53 -28.20130 -49.97451 32179 ft 337 kts 215°